Content
SEND FEEDBACK

Daily
Averages
Monthly
Summary
Iran

TABRIZ, IRAN


Home > Middle East > Iran
Elevation: 1315 meters     Latitude: 38 05N     Longitude: 046 17E

WEATHER
 
SELECT A DAY
Number of Records: 198,722;   Date Range: 2/9/98 - 11/19/14
 
SHARE

PRINT THIS DATA

[ ← Previous Day ]
WEATHER ALMANAC - 31 JANUARY, 2013
[ Next Day → ]
[ °F ]   °C
Weather ElementAverageHighLow
Temperature4.4 °C7 °C (12:20 pm)1 °C (6:20 am)
Dewpoint0.3 °C2 °C (5:20 pm)-1 °C (1:30 am)
Humidity75 %93 % (11:20 pm)57 % (12:20 pm)
Barometer1008.8 hPa1013.2 hPa (1:30 am)1005.1 hPa (11:20 pm)
Wind Speed6.6 km/h11.1 km/h (5:20 am)
Weather ElementAverage
Visibility9 km
Wind DirectionESE (109 °)

Weather ElementTotal
Precipitation---
Heating Degree Days14.3 (Base 18.3)
Averaged from 41 records on 31 January, 2013
WEATHER CONDITIONS BREAKOUT
WIND DIRECTION BREAKOUT
WEATHER BY HOUR - 31 JANUARY, 2013
[ °F ]   °C
Local TimeTemperatureDewpointHumidityBarometerVisibilityWind DirectionWind SpeedGust SpeedPrecipitationEventsConditions
1:30 AM2 °C-1 °C81 %1013.2 hPa10 kmNW (320°)7.4 km/hScattered Clouds
2:30 AM2 °C-1 °C81 %1013.2 hPa10 kmNNW (340°)7.4 km/hMostly Cloudy
3:30 AM2.2 °C-0.6 °C75 %1013.2 hPa9.7 kmCalmPartly Cloudy
5:20 AM2 °C-1 °C81 %1011.2 hPa10 kmNE (40°)11.1 km/hScattered Clouds
5:30 AM2 °C-1 °C81 %1011.2 hPa10 kmNE (40°)11.1 km/hScattered Clouds
6:20 AM1 °C-1 °C87 %1011.2 hPa10 kmNNE (20°)7.4 km/hScattered Clouds
7:20 AM1 °C-1 °C87 %1011.2 hPa10 kmNE (40°)11.1 km/hOvercast
8:20 AM2 °C-1 °C81 %1011.2 hPa8 kmNNE (30°)7.4 km/hMostly Cloudy
9:20 AM3 °C-1 °C75 %1011.2 hPa8 kmNNE (30°)11.1 km/hOvercast
10:20 AM5 °C0 °C70 %1011.2 hPa8 kmNE (40°)7.4 km/hMostly Cloudy
11:20 AM6 °C0 °C66 %1010.2 hPa10 kmEast (80°)7.4 km/hScattered Clouds
11:30 AM6 °C0 °C66 %1010.2 hPa10 kmEast (80°)7.4 km/hScattered Clouds
12:00 PM6 °C-1 °C61 %1010.2 hPa10 kmEast (100°)11.1 km/hScattered Clouds
12:20 PM7 °C-1 °C57 %1009.1 hPa10 kmNNE (20°)7.4 km/hScattered Clouds
12:30 PM7 °C-1 °C57 %1009.1 hPa10 kmNNE (20°)7.4 km/hScattered Clouds
1:00 PM7 °C-1 °C57 %1010.2 hPa10 kmWNW (290°)7.4 km/hMostly Cloudy
1:20 PM7 °C-1 °C57 %1008.1 hPa10 kmVariable3.7 km/hMostly Cloudy
1:30 PM7 °C-1 °C57 %1008.1 hPa10 kmVariable3.7 km/hMostly Cloudy
2:00 PM7 °C-1 °C57 %1008.1 hPa10 kmWSW (240°)7.4 km/hMostly Cloudy
2:20 PM7 °C-1 °C57 %1008.1 hPa10 kmSSW (210°)7.4 km/hOvercast
2:30 PM7 °C-1 °C57 %1008.1 hPa10 kmSSW (210°)7.4 km/hOvercast
2:50 PM6 °C1 °C70 %1008.1 hPa10 kmSSE (150°)11.1 km/hRainLight Rain Showers
3:20 PM5 °C1 °C76 %1007.1 hPa8 kmNE (50°)7.4 km/hRainLight Rain Showers
3:30 PM5 °C0.6 °C64 %1009.1 hPa8 kmNE (50°)7.2 km/hRainLight Rain Showers
3:30 PM5 °C1 °C76 %1007.1 hPa8 kmNE (50°)7.4 km/hRainLight Rain Showers
4:20 PM5 °C1 °C76 %1007.1 hPa8 kmNNE (20°)7.4 km/hRainRain Showers
4:30 PM5 °C1 °C76 %1007.1 hPa8 kmNNE (20°)7.4 km/hRainRain Showers
5:20 PM5 °C2 °C81 %1007.1 hPa6 kmNNW (340°)7.4 km/hRainLight Rain Showers
5:30 PM5 °C2 °C81 %1007.1 hPa6 kmNNW (340°)7.4 km/hRainLight Rain Showers
6:20 PM4 °C2 °C87 %1007.1 hPa6 kmNNW (330°)11.1 km/hRainRain Showers
6:30 PM4 °C2 °C87 %1007.1 hPa6 kmNNW (330°)11.1 km/hRainRain Showers
7:20 PM3 °C1 °C87 %1007.1 hPa6.9 kmNorth (360°)7.4 km/hRainRain Showers
8:20 PM4 °C2 °C87 %1007.1 hPa8 kmCalmOvercast
8:30 PM4 °C2 °C87 %1007.1 hPa8 kmCalmOvercast
9:20 PM4 °C1 °C81 %1006.1 hPa10 kmCalmMostly Cloudy
9:30 PM4.4 °C1.1 °C70 %1007.8 hPa9.7 kmCalmPartly Cloudy
9:30 PM4 °C1 °C81 %1006.1 hPa10 kmCalmMostly Cloudy
10:20 PM4 °C2 °C87 %1006.1 hPa10 kmNNE (30°)7.4 km/hMostly Cloudy
10:30 PM4 °C2 °C87 %1006.1 hPa10 kmNNE (30°)7.4 km/hMostly Cloudy
11:20 PM3 °C2 °C93 %1005.1 hPa10 kmVariable3.7 km/hMostly Cloudy
11:30 PM3 °C2 °C93 %1005.1 hPa10 kmVariable3.7 km/hMostly Cloudy
Hourly data recorded from OITT, located 0 kilometers away from Tabriz, Iran







STORIES FROM OUR PARTNERS